Fairbanks, AK

9:30 AM AKDT on October 17, 2017 (GMT -0800)
Fairbanks International

Weather History for PAFA - March, 2013

Change the Weather History Date:

Thursday, March 28, 2013

  Actual Average Record
Temperature  
Mean Temperature 4 °F 18 °F  
Max Temperature 31 °F 32 °F 55 °F (1939)
Min Temperature -24 °F 5 °F -31 °F (1963)
Degree Days  
Heating Degree Days 61 46  
Month to date heating degree days 1662 1525  
Since 1 July heating degree days 12633 11915  
Cooling Degree Days 0 0  
Month to date cooling degree days 0 0  
Year to date cooling degree days 0 0  
Moisture  
Dew Point -8 °F    
Average Humidity 59    
Maximum Humidity 78    
Minimum Humidity 14    
Precipitation  
Precipitation 0.00 in 0.01 in 0.18 in (1948)
Month to date precipitation 0.26 0.23  
Year to date precipitation 1.53 1.23  
Snow  
Snow 0.00 in 0.10 in 2.10 in (1948)
Month to date snowfall 6.2 4.5  
Since 1 July snowfall 56.7 60.8  
Snow Depth 23.00 in    
Sea Level Pressure  
Sea Level Pressure 30.04 in    
Wind  
Wind Speed 2 mph (NNE)    
Max Wind Speed 6 mph    
Max Gust Speed -    
Visibility 10 miles    
Events      
T = Trace of Precipitation, MM = Missing Value Source: NWS Daily Summary

Daily Weather History Graph

Daily Weather History Graph

Search for Another Location

Airport or City:

Trip Planner

Search our weather history database for the weather conditions in past years. The results will help you decide how hot, cold, wet, or windy it might be!

Date:

Astronomy

Mar. 28, 2013 Rise Set
Actual Time 7:21 AM AKDT 8:33 PM AKDT
Civil Twilight 6:30 AM AKDT 9:24 PM AKDT
Nautical Twilight 5:26 AM AKDT 10:28 PM AKDT
Astronomical Twilight 4:05 AM AKDT 11:52 PM AKDT
Moon 11:40 PM AKDT (3/28) 7:10 AM AKDT (3/28)
Length of Visible Light 14h 53m
Length of Day
13h 12m
Full, 97% of the Moon is Illuminated
Mar 28
Full
Apr 2
Last Quarter
Apr 10
New
Apr 18
First Quarter
Apr 25
Full

Hourly Weather History & Observations

Time (AKDT) Temp. Windchill Dew Point Humidity Pressure Visibility Wind Dir Wind Speed Gust Speed Precip Events Conditions
12:53 AM -11.9 °F -23.8 °F -18.9 °F 71% 30.16 in 10.0 mi NE 4.6 mph - N/A   Partly Cloudy
1:53 AM -11.9 °F - -18.0 °F 74% 30.15 in 10.0 mi Calm Calm - N/A   Partly Cloudy
2:53 AM -9.9 °F -21.5 °F -17.0 °F 71% 30.15 in 10.0 mi East 4.6 mph - N/A   Partly Cloudy
3:53 AM -17.0 °F - -22.0 °F 78% 30.14 in 10.0 mi Calm Calm - N/A   Partly Cloudy
4:53 AM -18.0 °F - -24.0 °F 74% 30.13 in 10.0 mi Calm Calm - N/A   Partly Cloudy
5:53 AM -20.0 °F - -26.0 °F 74% 30.13 in 10.0 mi Calm Calm - N/A   Partly Cloudy
6:53 AM -20.0 °F - -26.0 °F 74% 30.12 in 10.0 mi Calm Calm - N/A   Scattered Clouds
7:53 AM -20.0 °F - -27.0 °F 70% 30.12 in 10.0 mi Calm Calm - N/A   Scattered Clouds
8:53 AM -16.1 °F - -22.0 °F 74% 30.10 in 10.0 mi Calm Calm - N/A   Scattered Clouds
9:53 AM -9.0 °F - -15.0 °F 75% 30.09 in 10.0 mi Calm Calm - N/A   Scattered Clouds
10:53 AM -0.9 °F - -9.9 °F 66% 30.08 in 10.0 mi Calm Calm - N/A   Scattered Clouds
11:53 AM 7.0 °F - -7.1 °F 53% 30.06 in 10.0 mi Calm Calm - N/A   Scattered Clouds
12:53 PM 12.9 °F - -2.9 °F 49% 30.05 in 10.0 mi Calm Calm - N/A   Scattered Clouds
1:53 PM 19.9 °F - -0.9 °F 40% 30.03 in 10.0 mi Calm Calm - N/A   Scattered Clouds
2:53 PM 27.0 °F - -0.9 °F 30% 30.01 in 10.0 mi Calm Calm - N/A   Scattered Clouds
3:53 PM 30.9 °F - -0.0 °F 27% 29.99 in 10.0 mi Calm Calm - N/A   Scattered Clouds
4:53 PM 26.1 °F 19.4 °F 6.1 °F 43% 29.97 in 10.0 mi NNE 5.8 mph - N/A   Scattered Clouds
5:53 PM 28.9 °F 22.8 °F 7.0 °F 40% 29.96 in 10.0 mi NNE 5.8 mph - N/A   Mostly Cloudy
6:53 PM 25.0 °F 19.3 °F 7.0 °F 46% 29.94 in 10.0 mi NNE 4.6 mph - N/A   Mostly Cloudy
7:53 PM 24.1 °F 18.2 °F 8.1 °F 51% 29.94 in 10.0 mi North 4.6 mph - N/A   Mostly Cloudy
8:53 PM 19.0 °F - 6.1 °F 57% 29.93 in 10.0 mi Calm Calm - N/A   Scattered Clouds
9:53 PM 9.0 °F -0.9 °F 1.9 °F 73% 29.92 in 10.0 mi NE 5.8 mph - N/A   Partly Cloudy
10:53 PM 10.9 °F 2.9 °F 1.0 °F 64% 29.92 in 10.0 mi NNE 4.6 mph - N/A   Partly Cloudy
11:53 PM 8.1 °F 1.4 °F -0.9 °F 67% 29.92 in 10.0 mi NNE 3.5 mph - N/A   Partly Cloudy